| time (UTC) | temp F | wind direction | speed knots | gust knots | rain 1hr in | rain 24hr in | rain mn in | humidity % | barometer mb |
| 20260903045843 | 67 | 230 | 1.7 | 2.6 | 0.00 | 0.99 | 0.00 | 95 | 1014.0 |
| 20260903045409 | 67 | 182 | 0.9 | 3.5 | 0.00 | 0.99 | 0.00 | 95 | 1014.1 |
| 20260903044847 | 67 | 245 | 1.7 | 3.5 | 0.01 | 0.99 | 0.00 | 95 | 1014.2 |
| 20260903044332 | 67 | 212 | 1.7 | 3.5 | 0.01 | 0.99 | 0.00 | 95 | 1014.2 |
| 20260903043912 | 67 | 258 | 0.9 | 3.5 | 0.02 | 0.99 | 0.00 | 95 | 1014.2 |
| 20260903043338 | 67 | 199 | 0.9 | 3.5 | 0.02 | 0.99 | 0.00 | 95 | 1013.8 |
| 20260903042858 | 67 | 253 | 1.7 | 2.6 | 0.02 | 0.99 | 0.00 | 95 | 1013.7 |
| 20260903042340 | 67 | 253 | 0.9 | 4.3 | 0.02 | 0.99 | 0.00 | 95 | 1013.7 |
| 20260903041841 | 67 | 248 | 1.7 | 5.2 | 0.03 | 0.99 | 0.00 | 95 | 1014.2 |
| 20260903041413 | 67 | 244 | 1.7 | 4.3 | 0.03 | 0.99 | 0.00 | 95 | 1014.2 |
| 20260903040843 | 67 | 232 | 1.7 | 4.3 | 0.03 | 0.99 | 0.00 | 95 | 1014.0 |
| 20260903040337 | 67 | 157 | 0.9 | 3.5 | 0.03 | 0.99 | 0.00 | 95 | 1013.6 |
| 20260903035843 | 67 | 136 | 0.9 | 4.3 | 0.03 | 0.99 | 0.99 | 95 | 1013.6 |
| 20260903035343 | 67 | 198 | 0.9 | 1.7 | 0.11 | 0.98 | 0.98 | 95 | 1013.6 |
| 20260903034845 | 67 | 107 | 0.0 | 1.7 | 0.11 | 0.98 | 0.98 | 95 | 1013.1 |
| 20260903034339 | 67 | 188 | 0.9 | 1.7 | 0.11 | 0.98 | 0.98 | 95 | 1013.2 |
| 20260903033837 | 67 | 188 | 0.0 | 1.7 | 0.11 | 0.97 | 0.97 | 95 | 1013.4 |
| 20260903033346 | 67 | 188 | 0.9 | 2.6 | 0.11 | 0.97 | 0.97 | 95 | 1013.4 |
| 20260903032849 | 67 | 188 | 0.9 | 2.6 | 0.11 | 0.97 | 0.97 | 95 | 1013.6 |
| 20260903032331 | 67 | 240 | 0.0 | 1.7 | 0.11 | 0.97 | 0.97 | 95 | 1014.0 |
| 20260903031857 | 67 | 240 | 0.9 | 1.7 | 0.10 | 0.96 | 0.96 | 94 | 1014.5 |
| 20260903031333 | 67 | 240 | 0.9 | 1.7 | 0.10 | 0.96 | 0.96 | 94 | 1014.4 |
| 20260903030831 | 67 | 240 | 0.9 | 1.7 | 0.10 | 0.96 | 0.96 | 94 | 1014.2 |
| 20260903030351 | 67 | 240 | 0.9 | 2.6 | 0.11 | 0.96 | 0.96 | 94 | 1014.2 |
| 20260903025841 | 67 | 240 | 0.0 | 4.3 | 0.11 | 0.96 | 0.96 | 94 | 1014.3 |
| 20260903025400 | 67 | 252 | 1.7 | 4.3 | 0.03 | 0.87 | 0.87 | 94 | 1014.8 |
| 20260903024841 | 68 | 230 | 1.7 | 2.6 | 0.04 | 0.87 | 0.87 | 94 | 1014.5 |
| 20260903024332 | 68 | 230 | 0.9 | 2.6 | 0.05 | 0.87 | 0.87 | 94 | 1014.6 |
| 20260903023833 | 68 | 230 | 0.9 | 1.7 | 0.07 | 0.86 | 0.86 | 94 | 1014.5 |
| 20260903023340 | 68 | 230 | 0.9 | 1.7 | 0.13 | 0.86 | 0.86 | 94 | 1014.5 |
| 20260903022839 | 68 | 230 | 0.9 | 1.7 | 0.13 | 0.86 | 0.86 | 94 | 1014.8 |
| 20260903022406 | 68 | 230 | 0.9 | 1.7 | 0.13 | 0.86 | 0.86 | 94 | 1014.9 |
| 20260903021848 | 68 | 230 | 0.0 | 1.7 | 0.13 | 0.86 | 0.86 | 94 | 1014.8 |
| 20260903021345 | 68 | 230 | 0.9 | 3.5 | 0.13 | 0.86 | 0.86 | 94 | 1014.8 |
| 20260903020843 | 68 | 230 | 0.0 | 3.5 | 0.13 | 0.86 | 0.86 | 94 | 1014.7 |
| 20260903020334 | 68 | 244 | 1.7 | 3.5 | 0.12 | 0.85 | 0.85 | 94 | 1014.7 |
| 20260903015843 | 68 | 251 | 1.7 | 3.5 | 0.12 | 0.85 | 0.85 | 93 | 1014.6 |
| 20260903015340 | 69 | 238 | 1.7 | 3.5 | 0.10 | 0.83 | 0.83 | 93 | 1014.6 |
| 20260903014904 | 69 | 216 | 1.7 | 3.5 | 0.11 | 0.83 | 0.83 | 94 | 1014.6 |
| 20260903014353 | 69 | 220 | 1.7 | 7.8 | 0.10 | 0.82 | 0.82 | 94 | 1014.5 |
| 20260903013847 | 69 | 121 | 4.3 | 7.8 | 0.08 | 0.79 | 0.79 | 94 | 1015.2 |
| 20260903013407 | 69 | 244 | 2.6 | 7.8 | 0.03 | 0.73 | 0.73 | 94 | 1015.9 |
| 20260903012852 | 69 | 111 | 2.6 | 7.8 | 0.03 | 0.73 | 0.73 | 93 | 1014.5 |
| 20260903012333 | 69 | 79 | 2.6 | 7.0 | 0.04 | 0.73 | 0.73 | 93 | 1015.0 |
| 20260903011837 | 69 | 101 | 0.9 | 1.7 | 0.04 | 0.73 | 0.73 | 93 | 1014.4 |
| 20260903011345 | 69 | 101 | 0.9 | 1.7 | 0.04 | 0.73 | 0.73 | 93 | 1014.6 |
| 20260903010841 | 69 | 98 | 0.9 | 2.6 | 0.05 | 0.73 | 0.73 | 93 | 1014.8 |
| 20260903010345 | 69 | 115 | 0.9 | 4.3 | 0.05 | 0.73 | 0.73 | 93 | 1015.0 |
| 20260903005833 | 69 | 171 | 0.9 | 3.5 | 0.05 | 0.73 | 0.73 | 93 | 1015.2 |
| 20260903005339 | 69 | 123 | 0.9 | 2.6 | 0.05 | 0.73 | 0.73 | 93 | 1015.2 |
| 20260903004902 | 69 | 116 | 0.9 | 2.6 | 0.04 | 0.72 | 0.72 | 93 | 1015.3 |
| 20260903004341 | 70 | 116 | 0.9 | 3.5 | 0.04 | 0.72 | 0.72 | 93 | 1015.0 |
| 20260903003833 | 69 | 116 | 0.9 | 5.2 | 0.06 | 0.71 | 0.71 | 93 | 1014.4 |
| 20260903003359 | 70 | 90 | 1.7 | 4.3 | 0.19 | 0.70 | 0.70 | 93 | 1014.5 |
| 20260903002832 | 70 | 115 | 1.7 | 7.8 | 0.37 | 0.70 | 0.70 | 93 | 1014.5 |
| 20260903002347 | 69 | 360 | 3.5 | 7.8 | 0.44 | 0.69 | 0.69 | 93 | 1014.5 |
| 20260903001847 | 70 | 38 | 1.7 | 7.0 | 0.44 | 0.69 | 0.69 | 92 | 1013.9 |
| 20260903001337 | 70 | 24 | 3.5 | 7.0 | 0.44 | 0.69 | 0.69 | 92 | 1013.5 |
| 20260903000830 | 70 | 44 | 2.6 | 5.2 | 0.43 | 0.68 | 0.68 | 92 | 1013.4 |
| 20260903000335 | 70 | 263 | 1.7 | 5.2 | 0.43 | 0.68 | 0.68 | 92 | 1013.2 |
| 20260902235844 | 70 | 96 | 1.7 | 5.2 | 0.43 | 0.68 | 0.68 | 92 | 1013.4 |
| 20260902235350 | 70 | 47 | 1.7 | 5.2 | 0.43 | 0.68 | 0.68 | 92 | 1013.2 |
| 20260902234900 | 71 | 46 | 2.6 | 8.7 | 0.43 | 0.68 | 0.68 | 91 | 1013.0 |
| 20260902234340 | 71 | 113 | 2.6 | 11.3 | 0.43 | 0.68 | 0.68 | 90 | 1012.9 |
| 20260902233836 | 72 | 255 | 4.3 | 12.2 | 0.40 | 0.65 | 0.65 | 88 | 1012.7 |
| 20260902233343 | 74 | 20 | 5.2 | 13.9 | 0.26 | 0.51 | 0.51 | 85 | 1012.3 |
| 20260902232833 | 77 | 309 | 5.2 | 13.0 | 0.08 | 0.33 | 0.33 | 90 | 1012.8 |
| 20260902232336 | 77 | 306 | 0.9 | 4.3 | 0.00 | 0.25 | 0.25 | 91 | 1012.6 |
| 20260902231841 | 78 | 216 | 0.9 | 4.3 | 0.00 | 0.25 | 0.25 | 91 | 1012.8 |
| 20260902231404 | 78 | 294 | 0.9 | 1.7 | 0.00 | 0.25 | 0.25 | 91 | 1013.1 |
| 20260902230841 | 78 | 224 | 0.9 | 1.7 | 0.00 | 0.25 | 0.25 | 91 | 1013.1 |
| 20260902230345 | 79 | 229 | 0.0 | 4.3 | 0.00 | 0.25 | 0.25 | 91 | 1012.9 |
| 20260902225839 | 79 | 229 | 1.7 | 6.1 | 0.00 | 0.25 | 0.25 | 91 | 1013.0 |
| 20260902225341 | 79 | 220 | 1.7 | 6.1 | 0.00 | 0.25 | 0.25 | 90 | 1013.0 |
| 20260902224849 | 79 | 223 | 1.7 | 6.1 | 0.00 | 0.25 | 0.25 | 90 | 1013.0 |
| 20260902224337 | 79 | 227 | 1.7 | 5.2 | 0.00 | 0.25 | 0.25 | 90 | 1013.1 |
| 20260902223834 | 79 | 237 | 1.7 | 6.1 | 0.00 | 0.25 | 0.25 | 89 | 1013.2 |
| 20260902223351 | 80 | 236 | 1.7 | 6.1 | 0.00 | 0.25 | 0.25 | 89 | 1013.2 |
| 20260902222833 | 80 | 244 | 1.7 | 7.0 | 0.00 | 0.25 | 0.25 | 88 | 1013.2 |
| 20260902222338 | 80 | 223 | 1.7 | 7.0 | 0.00 | 0.25 | 0.25 | 88 | 1013.1 |
| 20260902221843 | 80 | 206 | 1.7 | 6.1 | 0.00 | 0.25 | 0.25 | 88 | 1013.1 |
| 20260902221336 | 80 | 239 | 2.6 | 4.3 | 0.00 | 0.25 | 0.25 | 88 | 1013.1 |
| 20260902220843 | 80 | 223 | 1.7 | 4.3 | 0.00 | 0.25 | 0.25 | 88 | 1013.0 |
| 20260902220336 | 80 | 201 | 1.7 | 3.5 | 0.00 | 0.25 | 0.25 | 88 | 1012.8 |
| 20260902215849 | 81 | 141 | 1.7 | 4.3 | 0.00 | 0.25 | 0.25 | 88 | 1012.7 |
| 20260902215415 | 81 | 207 | 1.7 | 4.3 | 0.00 | 0.25 | 0.25 | 88 | 1012.9 |
| 20260902214837 | 80 | 246 | 0.9 | 3.5 | 0.00 | 0.25 | 0.25 | 88 | 1012.8 |
| 20260902214335 | 80 | 212 | 0.9 | 4.3 | 0.00 | 0.25 | 0.25 | 87 | 1012.5 |
| 20260902213843 | 81 | 228 | 1.7 | 7.8 | 0.00 | 0.25 | 0.25 | 86 | 1012.5 |
| 20260902213340 | 82 | 255 | 1.7 | 9.6 | 0.00 | 0.25 | 0.25 | 86 | 1012.5 |
| 20260902212848 | 82 | 257 | 2.6 | 9.6 | 0.00 | 0.25 | 0.25 | 86 | 1012.6 |
| 20260902212331 | 82 | 226 | 3.5 | 8.7 | 0.00 | 0.25 | 0.25 | 85 | 1012.8 |
| 20260902211902 | 81 | 215 | 3.5 | 7.8 | 0.00 | 0.25 | 0.25 | 87 | 1012.9 |
| 20260902211402 | 81 | 204 | 3.5 | 7.8 | 0.00 | 0.25 | 0.25 | 88 | 1013.2 |
| 20260902210841 | 80 | 226 | 1.7 | 4.3 | 0.00 | 0.25 | 0.25 | 88 | 1013.4 |
| 20260902210331 | 79 | 179 | 1.7 | 5.2 | 0.00 | 0.25 | 0.25 | 88 | 1013.4 |
| 20260902205839 | 79 | 140 | 1.7 | 5.2 | 0.00 | 0.25 | 0.25 | 89 | 1012.8 |
| 20260902205344 | 80 | 243 | 0.9 | 8.7 | 0.00 | 0.25 | 0.25 | 89 | 1013.4 |
| 20260902204835 | 81 | 232 | 3.5 | 8.7 | 0.00 | 0.25 | 0.25 | 86 | 1013.5 |
| 20260902204335 | 82 | 223 | 0.9 | 7.8 | 0.00 | 0.25 | 0.25 | 84 | 1013.8 |
| 20260902203839 | 83 | 211 | 0.9 | 6.1 | 0.00 | 0.25 | 0.25 | 84 | 1013.9 |
| 20260902203332 | 83 | 213 | 2.6 | 6.1 | 0.00 | 0.25 | 0.25 | 84 | 1014.2 |
| 20260902202839 | 82 | 205 | 1.7 | 2.6 | 0.00 | 0.25 | 0.25 | 87 | 1014.5 |
| 20260902202343 | 81 | 240 | 0.9 | 6.1 | 0.00 | 0.25 | 0.25 | 87 | 1014.5 |
| 20260902201835 | 82 | 260 | 1.7 | 6.1 | 0.00 | 0.25 | 0.25 | 87 | 1014.6 |
| 20260902201332 | 82 | 246 | 0.9 | 6.1 | 0.00 | 0.25 | 0.25 | 86 | 1014.7 |
| 20260902200843 | 82 | 187 | 1.7 | 6.1 | 0.00 | 0.25 | 0.25 | 84 | 1014.9 |
| 20260902200345 | 82 | 219 | 0.9 | 4.3 | 0.00 | 0.25 | 0.25 | 84 | 1014.8 |
| 20260902195849 | 83 | 240 | 1.7 | 4.3 | 0.00 | 0.25 | 0.25 | 84 | 1015.1 |
| 20260902195340 | 82 | 160 | 1.7 | 4.3 | 0.00 | 0.25 | 0.25 | 83 | 1015.1 |
| 20260902194839 | 82 | 197 | 0.9 | 5.2 | 0.00 | 0.25 | 0.25 | 83 | 1015.0 |
| 20260902194335 | 82 | 228 | 2.6 | 5.2 | 0.00 | 0.25 | 0.25 | 82 | 1015.0 |
| 20260902193831 | 82 | 220 | 1.7 | 5.2 | 0.00 | 0.25 | 0.25 | 85 | 1015.0 |
| 20260902193332 | 81 | 205 | 0.9 | 5.2 | 0.00 | 0.25 | 0.25 | 85 | 1015.1 |
| 20260902192855 | 81 | 198 | 0.9 | 5.2 | 0.00 | 0.25 | 0.25 | 86 | 1015.1 |
| 20260902192335 | 80 | 196 | 0.0 | 6.1 | 0.00 | 0.25 | 0.25 | 86 | 1015.2 |
| 20260902191837 | 80 | 221 | 1.7 | 6.1 | 0.00 | 0.25 | 0.25 | 87 | 1015.3 |
| 20260902191407 | 80 | 220 | 1.7 | 6.1 | 0.00 | 0.25 | 0.25 | 86 | 1015.3 |
| 20260902190833 | 81 | 240 | 2.6 | 7.0 | 0.00 | 0.25 | 0.25 | 85 | 1015.3 |
| 20260902190337 | 81 | 211 | 2.6 | 7.0 | 0.00 | 0.25 | 0.25 | 85 | 1015.4 |
| 20260902185842 | 81 | 226 | 2.6 | 6.1 | 0.00 | 0.25 | 0.25 | 85 | 1015.4 |
| 20260902185335 | 81 | 226 | 1.7 | 4.3 | 0.00 | 0.25 | 0.25 | 84 | 1015.4 |
| 20260902184831 | 81 | 209 | 0.9 | 5.2 | 0.00 | 0.25 | 0.25 | 86 | 1015.3 |
| 20260902184352 | 81 | 259 | 2.6 | 7.0 | 0.00 | 0.25 | 0.25 | 86 | 1015.2 |
| 20260902183851 | 81 | 230 | 2.6 | 7.0 | 0.00 | 0.25 | 0.25 | 85 | 1015.2 |
| 20260902183350 | 81 | 211 | 4.3 | 7.0 | 0.00 | 0.25 | 0.25 | 85 | 1015.2 |
| 20260902182836 | 80 | 196 | 3.5 | 7.8 | 0.00 | 0.25 | 0.25 | 86 | 1015.2 |
| 20260902182401 | 80 | 217 | 1.7 | 7.8 | 0.00 | 0.25 | 0.25 | 86 | 1015.0 |
| 20260902181846 | 79 | 227 | 3.5 | 10.4 | 0.00 | 0.25 | 0.25 | 87 | 1015.0 |
| 20260902181351 | 79 | 231 | 4.3 | 10.4 | 0.00 | 0.25 | 0.25 | 86 | 1015.2 |
| 20260902180848 | 79 | 249 | 5.2 | 9.6 | 0.00 | 0.25 | 0.25 | 86 | 1015.2 |
| 20260902180348 | 79 | 249 | 4.3 | 13.0 | 0.00 | 0.25 | 0.25 | 88 | 1015.2 |
| 20260902175830 | 78 | 273 | 4.3 | 13.0 | 0.01 | 0.25 | 0.25 | 88 | 1015.3 |
| 20260902175353 | 77 | 234 | 2.6 | 7.8 | 0.01 | 0.25 | 0.25 | 90 | 1015.4 |
| 20260902174836 | 77 | 215 | 3.5 | 7.0 | 0.01 | 0.25 | 0.25 | 91 | 1015.6 |
| 20260902174345 | 77 | 231 | 4.3 | 7.0 | 0.01 | 0.25 | 0.25 | 90 | 1015.8 |
| 20260902173849 | 76 | 192 | 3.5 | 7.0 | 0.01 | 0.25 | 0.25 | 90 | 1015.9 |
| 20260902173408 | 76 | 228 | 1.7 | 7.8 | 0.04 | 0.25 | 0.25 | 91 | 1016.1 |
| 20260902172849 | 76 | 197 | 3.5 | 7.8 | 0.06 | 0.25 | 0.25 | 91 | 1016.3 |
| 20260902172331 | 75 | 179 | 2.6 | 7.0 | 0.06 | 0.25 | 0.25 | 93 | 1016.1 |
| 20260902171840 | 74 | 219 | 1.7 | 5.2 | 0.06 | 0.25 | 0.25 | 94 | 1016.2 |
| 20260902171357 | 74 | 252 | 1.7 | 5.2 | 0.06 | 0.25 | 0.25 | 93 | 1016.2 |
| 20260902170830 | 74 | 236 | 2.6 | 4.3 | 0.06 | 0.25 | 0.25 | 93 | 1016.1 |
| 20260902170350 | 74 | 198 | 1.7 | 6.1 | 0.06 | 0.25 | 0.25 | 92 | 1016.1 |
| 20260902165830 | 74 | 200 | 0.9 | 5.2 | 0.05 | 0.24 | 0.24 | 92 | 1016.0 |
| 20260902165408 | 75 | 219 | 1.7 | 5.2 | 0.05 | 0.24 | 0.24 | 91 | 1016.0 |
| 20260902164830 | 75 | 203 | 0.0 | 2.6 | 0.05 | 0.24 | 0.24 | 91 | 1015.9 |
| 20260902164341 | 75 | 203 | 0.0 | 2.6 | 0.05 | 0.24 | 0.24 | 91 | 1015.9 |
| 20260902163848 | 75 | 203 | 0.9 | 2.6 | 0.04 | 0.23 | 0.23 | 91 | 1015.9 |
| 20260902163400 | 75 | 203 | 0.9 | 4.3 | 0.02 | 0.21 | 0.21 | 92 | 1016.0 |
| 20260902162844 | 75 | 230 | 1.7 | 4.3 | 0.00 | 0.19 | 0.19 | 92 | 1016.1 |
| 20260902162348 | 75 | 237 | 0.9 | 3.5 | 0.00 | 0.19 | 0.19 | 92 | 1015.9 |
| 20260902161832 | 75 | 222 | 0.9 | 3.5 | 0.00 | 0.19 | 0.19 | 92 | 1015.9 |
| 20260902161333 | 75 | 229 | 0.9 | 5.2 | 0.00 | 0.19 | 0.19 | 92 | 1015.9 |
| 20260902160858 | 75 | 228 | 0.9 | 5.2 | 0.00 | 0.19 | 0.19 | 92 | 1016.1 |
| 20260902160347 | 75 | 236 | 2.6 | 5.2 | 0.00 | 0.19 | 0.19 | 92 | 1016.0 |
| 20260902155917 | 74 | 231 | 0.9 | 5.2 | 0.00 | 0.20 | 0.19 | 92 | 1016.1 |
| 20260902155330 | 75 | 113 | 0.9 | 2.6 | 0.00 | 0.20 | 0.19 | 93 | 1015.9 |
| 20260902154852 | 74 | 194 | 0.9 | 4.3 | 0.00 | 0.20 | 0.19 | 93 | 1016.0 |
| 20260902154337 | 74 | 226 | 0.9 | 4.3 | 0.00 | 0.20 | 0.19 | 92 | 1015.8 |
| 20260902153844 | 75 | 277 | 0.0 | 3.5 | 0.00 | 0.20 | 0.19 | 92 | 1015.9 |
| 20260902153406 | 75 | 215 | 0.9 | 3.5 | 0.00 | 0.20 | 0.19 | 93 | 1015.8 |
| 20260902152855 | 75 | 217 | 0.9 | 4.3 | 0.00 | 0.20 | 0.19 | 93 | 1015.8 |
| 20260902152346 | 75 | 225 | 0.9 | 6.1 | 0.00 | 0.20 | 0.19 | 93 | 1015.9 |
| 20260902151832 | 74 | 249 | 1.7 | 3.5 | 0.00 | 0.20 | 0.19 | 94 | 1015.9 |
| 20260902151338 | 74 | 236 | 1.7 | 4.3 | 0.00 | 0.20 | 0.19 | 94 | 1016.1 |
| 20260902150838 | 74 | 203 | 0.9 | 4.3 | 0.00 | 0.20 | 0.19 | 94 | 1016.3 |
| 20260902150344 | 74 | 216 | 1.7 | 6.1 | 0.00 | 0.20 | 0.19 | 95 | 1016.6 |
| 20260902145852 | 74 | 250 | 2.6 | 6.1 | 0.00 | 0.20 | 0.19 | 95 | 1016.6 |
| 20260902145348 | 74 | 209 | 1.7 | 3.5 | 0.00 | 0.20 | 0.19 | 95 | 1016.7 |
| 20260902144859 | 74 | 232 | 0.0 | 3.5 | 0.00 | 0.20 | 0.19 | 96 | 1016.5 |
| 20260902144346 | 73 | 88 | 1.7 | 3.5 | 0.00 | 0.20 | 0.19 | 95 | 1016.5 |
| 20260902143843 | 74 | 110 | 1.7 | 3.5 | 0.00 | 0.20 | 0.19 | 96 | 1016.6 |
| 20260902143343 | 73 | 108 | 0.9 | 2.6 | 0.00 | 0.20 | 0.19 | 96 | 1016.6 |
| 20260902142841 | 73 | 108 | 0.9 | 2.6 | 0.00 | 0.20 | 0.19 | 96 | 1016.7 |
| 20260902142346 | 73 | 202 | 0.9 | 2.6 | 0.00 | 0.20 | 0.19 | 97 | 1016.4 |
| 20260902141849 | 73 | 212 | 0.9 | 3.5 | 0.00 | 0.20 | 0.19 | 96 | 1016.5 |
| 20260902141354 | 73 | 212 | 0.9 | 6.1 | 0.00 | 0.20 | 0.19 | 97 | 1016.7 |
| 20260902140844 | 72 | 196 | 0.9 | 2.6 | 0.00 | 0.20 | 0.19 | 97 | 1016.8 |
| 20260902140337 | 72 | 196 | 0.9 | 2.6 | 0.00 | 0.20 | 0.19 | 97 | 1016.8 |
| 20260902135847 | 72 | 181 | 0.9 | 2.6 | 0.00 | 0.20 | 0.19 | 96 | 1017.1 |
| 20260902135401 | 71 | 181 | 0.0 | 2.6 | 0.00 | 0.20 | 0.19 | 96 | 1017.2 |
| 20260902134903 | 71 | 181 | 0.9 | 2.6 | 0.00 | 0.20 | 0.19 | 96 | 1017.2 |
| 20260902134340 | 71 | 181 | 0.9 | 2.6 | 0.00 | 0.20 | 0.19 | 96 | 1017.2 |
| 20260902133841 | 71 | 181 | 0.9 | 2.6 | 0.00 | 0.20 | 0.19 | 96 | 1017.0 |
| 20260902133332 | 71 | 181 | 1.7 | 2.6 | 0.00 | 0.20 | 0.19 | 96 | 1017.0 |
| 20260902132838 | 71 | 221 | 0.0 | 1.7 | 0.00 | 0.20 | 0.19 | 96 | 1017.2 |
| 20260902132334 | 71 | 221 | 0.0 | 1.7 | 0.00 | 0.20 | 0.19 | 96 | 1017.3 |
| 20260902131857 | 71 | 221 | 0.9 | 1.7 | 0.00 | 0.20 | 0.19 | 96 | 1017.2 |
| 20260902131336 | 71 | 221 | 0.0 | 3.5 | 0.00 | 0.20 | 0.19 | 96 | 1017.1 |
| 20260902130856 | 71 | 186 | 0.0 | 2.6 | 0.00 | 0.20 | 0.19 | 96 | 1016.7 |
| 20260902130331 | 71 | 186 | 0.0 | 1.7 | 0.00 | 0.20 | 0.19 | 96 | 1016.5 |
| 20260902125837 | 71 | 186 | 0.0 | 1.7 | 0.00 | 0.20 | 0.19 | 96 | 1016.6 |
| 20260902125335 | 71 | 186 | 0.0 | 0.9 | 0.01 | 0.20 | 0.19 | 96 | 1016.5 |
| 20260902124831 | 71 | 186 | 0.0 | 2.6 | 0.09 | 0.20 | 0.19 | 96 | 1016.4 |
| 20260902124333 | 71 | 186 | 0.9 | 2.6 | 0.19 | 0.20 | 0.19 | 96 | 1016.5 |
| 20260902123834 | 71 | 200 | 0.9 | 1.7 | 0.19 | 0.20 | 0.19 | 96 | 1016.3 |
| 20260902123343 | 71 | 200 | 0.9 | 1.7 | 0.19 | 0.20 | 0.19 | 96 | 1016.2 |
| 20260902122848 | 71 | 199 | 0.0 | 3.5 | 0.19 | 0.20 | 0.19 | 96 | 1015.8 |
| 20260902122415 | 71 | 196 | 0.9 | 3.5 | 0.19 | 0.20 | 0.19 | 96 | 1015.6 |
| 20260902121835 | 71 | 157 | 0.9 | 2.6 | 0.19 | 0.20 | 0.19 | 96 | 1015.6 |
| 20260902121341 | 71 | 219 | 0.0 | 2.6 | 0.19 | 0.20 | 0.19 | 96 | 1015.7 |
| 20260902120846 | 71 | 221 | 0.9 | 8.7 | 0.19 | 0.20 | 0.19 | 96 | 1015.7 |
| 20260902120331 | 71 | 208 | 1.7 | 11.3 | 0.19 | 0.20 | 0.19 | 96 | 1015.6 |
| 20260902115835 | 71 | 161 | 5.2 | 19.1 | 0.19 | 0.20 | 0.19 | 96 | 1015.4 |
| 20260902115337 | 70 | 192 | 7.0 | 20.0 | 0.18 | 0.19 | 0.18 | 96 | 1015.5 |
| 20260902114850 | 70 | 253 | 7.8 | 20.0 | 0.10 | 0.11 | 0.10 | 96 | 1015.7 |
| 20260902114346 | 70 | 231 | 1.7 | 6.1 | 0.00 | 0.01 | 0.00 | 96 | 1015.2 |
| 20260902113841 | 70 | 230 | 0.9 | 6.1 | 0.00 | 0.01 | 0.00 | 96 | 1015.2 |
| 20260902113340 | 70 | 269 | 0.9 | 3.5 | 0.00 | 0.01 | 0.00 | 96 | 1015.0 |
| 20260902112842 | 70 | 281 | 0.9 | 4.3 | 0.00 | 0.01 | 0.00 | 96 | 1014.8 |
| 20260902112405 | 70 | 132 | 1.7 | 5.2 | 0.00 | 0.01 | 0.00 | 96 | 1015.0 |
| 20260902111842 | 70 | 207 | 2.6 | 5.2 | 0.00 | 0.01 | 0.00 | 96 | 1015.0 |
| 20260902111342 | 70 | 238 | 1.7 | 3.5 | 0.00 | 0.01 | 0.00 | 96 | 1015.1 |
| 20260902110841 | 70 | 231 | 1.7 | 4.3 | 0.00 | 0.01 | 0.00 | 96 | 1015.0 |
| 20260902110340 | 70 | 245 | 0.9 | 4.3 | 0.00 | 0.01 | 0.00 | 96 | 1014.8 |
| 20260902105847 | 70 | 239 | 0.9 | 4.3 | 0.00 | 0.01 | 0.00 | 96 | 1014.5 |
| 20260902105342 | 70 | 127 | 1.7 | 4.3 | 0.00 | 0.01 | 0.00 | 96 | 1014.5 |
| 20260902104848 | 70 | 145 | 0.9 | 5.2 | 0.00 | 0.01 | 0.00 | 96 | 1014.5 |
| 20260902104406 | 70 | 159 | 0.9 | 5.2 | 0.00 | 0.01 | 0.00 | 95 | 1014.4 |
| 20260902103847 | 70 | 88 | 1.7 | 5.2 | 0.00 | 0.01 | 0.00 | 95 | 1014.4 |
| 20260902103411 | 70 | 171 | 0.9 | 4.3 | 0.00 | 0.01 | 0.00 | 95 | 1014.4 |
| 20260902102834 | 70 | 220 | 1.7 | 3.5 | 0.00 | 0.01 | 0.00 | 95 | 1014.5 |
| 20260902102337 | 70 | 145 | 0.9 | 5.2 | 0.00 | 0.01 | 0.00 | 95 | 1014.6 |
| 20260902101833 | 70 | 211 | 0.9 | 6.1 | 0.00 | 0.01 | 0.00 | 95 | 1014.8 |
| 20260902101352 | 70 | 250 | 0.9 | 5.2 | 0.00 | 0.01 | 0.00 | 95 | 1014.4 |
| 20260902100837 | 70 | 163 | 0.0 | 4.3 | 0.00 | 0.01 | 0.00 | 95 | 1014.2 |
| 20260902100341 | 70 | 178 | 0.9 | 4.3 | 0.00 | 0.01 | 0.00 | 95 | 1014.5 |
| 20260902095902 | 70 | 174 | 0.9 | 4.3 | 0.00 | 0.01 | 0.00 | 95 | 1014.7 |
| 20260902095345 | 70 | 192 | 0.9 | 4.3 | 0.00 | 0.01 | 0.00 | 95 | 1014.6 |
| 20260902094840 | 70 | 202 | 1.7 | 4.3 | 0.00 | 0.01 | 0.00 | 95 | 1014.8 |
| 20260902094333 | 70 | 227 | 0.9 | 4.3 | 0.00 | 0.01 | 0.00 | 95 | 1014.9 |
| 20260902093833 | 70 | 198 | 0.9 | 4.3 | 0.00 | 0.01 | 0.00 | 95 | 1014.9 |
| 20260902093338 | 70 | 184 | 0.9 | 2.6 | 0.00 | 0.01 | 0.00 | 95 | 1015.0 |
| 20260902092844 | 70 | 156 | 0.9 | 3.5 | 0.00 | 0.01 | 0.00 | 95 | 1015.0 |
| 20260902092339 | 70 | 176 | 1.7 | 4.3 | 0.00 | 0.01 | 0.00 | 95 | 1015.0 |
| 20260902091840 | 70 | 161 | 0.9 | 4.3 | 0.00 | 0.01 | 0.00 | 96 | 1015.1 |
| 20260902091338 | 70 | 244 | 0.9 | 2.6 | 0.00 | 0.01 | 0.00 | 95 | 1015.1 |
| 20260902090840 | 71 | 305 | 0.9 | 3.5 | 0.00 | 0.01 | 0.00 | 95 | 1015.2 |
| 20260902090348 | 71 | 211 | 1.7 | 3.5 | 0.00 | 0.01 | 0.00 | 95 | 1015.1 |
| 20260902085852 | 71 | 195 | 0.9 | 1.7 | 0.00 | 0.01 | 0.00 | 95 | 1015.1 |
| 20260902085350 | 71 | 195 | 0.0 | 1.7 | 0.00 | 0.01 | 0.00 | 95 | 1015.4 |
| 20260902084848 | 71 | 195 | 0.0 | 1.7 | 0.00 | 0.01 | 0.00 | 95 | 1015.3 |
| 20260902084332 | 71 | 195 | 0.9 | 1.7 | 0.00 | 0.01 | 0.00 | 95 | 1015.2 |
| 20260902083847 | 71 | 195 | 0.9 | 1.7 | 0.00 | 0.01 | 0.00 | 95 | 1015.1 |
| 20260902083342 | 71 | 194 | 0.9 | 1.7 | 0.00 | 0.01 | 0.00 | 95 | 1015.3 |
| 20260902082845 | 71 | 194 | 0.0 | 2.6 | 0.00 | 0.01 | 0.00 | 95 | 1015.8 |
| 20260902082337 | 71 | 194 | 0.9 | 2.6 | 0.00 | 0.01 | 0.00 | 95 | 1015.8 |
| 20260902081851 | 71 | 194 | 0.9 | 2.6 | 0.00 | 0.01 | 0.00 | 95 | 1015.9 |
| 20260902081332 | 71 | 194 | 0.0 | 1.7 | 0.00 | 0.01 | 0.00 | 95 | 1015.7 |
| 20260902080849 | 71 | 194 | 0.0 | 1.7 | 0.00 | 0.01 | 0.00 | 95 | 1015.7 |
| 20260902080349 | 71 | 194 | 0.0 | 0.9 | 0.00 | 0.01 | 0.00 | 95 | 1015.8 |
| 20260902075835 | 71 | 194 | 0.0 | 0.9 | 0.00 | 0.01 | 0.00 | 95 | 1015.8 |
| 20260902075342 | 71 | 194 | 0.0 | 1.7 | 0.00 | 0.01 | 0.00 | 95 | 1015.7 |
| 20260902074841 | 71 | 194 | 0.0 | 1.7 | 0.00 | 0.01 | 0.00 | 95 | 1015.8 |
| 20260902074341 | 72 | 194 | 0.0 | 0.9 | 0.00 | 0.01 | 0.00 | 95 | 1015.7 |
| 20260902073844 | 72 | 194 | 0.0 | 2.6 | 0.00 | 0.01 | 0.00 | 95 | 1015.8 |
| 20260902073342 | 72 | 171 | 0.0 | 3.5 | 0.00 | 0.01 | 0.00 | 96 | 1015.8 |
| 20260902072837 | 72 | 146 | 0.0 | 0.9 | 0.00 | 0.01 | 0.00 | 96 | 1015.8 |
| 20260902072342 | 72 | 146 | 0.0 | 0.9 | 0.00 | 0.01 | 0.00 | 96 | 1015.9 |
| 20260902071838 | 72 | 146 | 0.0 | 1.7 | 0.00 | 0.01 | 0.00 | 96 | 1015.8 |
| 20260902071334 | 72 | 146 | 0.0 | 1.7 | 0.00 | 0.01 | 0.00 | 95 | 1015.8 |
| 20260902070847 | 72 | 146 | 0.0 | 0.9 | 0.00 | 0.01 | 0.00 | 96 | 1015.9 |
| 20260902070353 | 72 | 146 | 0.0 | 0.9 | 0.00 | 0.01 | 0.00 | 96 | 1015.9 |
| 20260902065838 | 72 | 146 | 0.0 | 0.9 | 0.00 | 0.01 | 0.00 | 96 | 1016.0 |
| 20260902065340 | 72 | 146 | 0.0 | 0.9 | 0.00 | 0.01 | 0.00 | 95 | 1016.0 |
| 20260902064906 | 72 | 146 | 0.0 | 0.9 | 0.00 | 0.01 | 0.00 | 95 | 1016.0 |
| 20260902064342 | 72 | 146 | 0.0 | 0.9 | 0.00 | 0.01 | 0.00 | 95 | 1015.9 |
| 20260902063841 | 72 | 146 | 0.0 | 2.6 | 0.00 | 0.01 | 0.00 | 95 | 1015.9 |
| 20260902063340 | 72 | 146 | 0.0 | 1.7 | 0.00 | 0.01 | 0.00 | 95 | 1016.0 |
| 20260902062838 | 72 | 127 | 0.0 | 2.6 | 0.00 | 0.01 | 0.00 | 95 | 1015.9 |
| 20260902062338 | 72 | 127 | 0.0 | 1.7 | 0.00 | 0.01 | 0.00 | 95 | 1016.0 |
| 20260902061844 | 72 | 175 | 0.9 | 1.7 | 0.00 | 0.01 | 0.00 | 95 | 1016.1 |
| 20260902061401 | 72 | 175 | 0.0 | 0.9 | 0.00 | 0.01 | 0.00 | 95 | 1016.2 |
| 20260902060855 | 72 | 175 | 0.0 | 0.9 | 0.00 | 0.01 | 0.00 | 95 | 1016.3 |
| 20260902060406 | 72 | 175 | 0.0 | 1.7 | 0.00 | 0.01 | 0.00 | 95 | 1016.3 |
| 20260902055852 | 72 | 175 | 0.0 | 1.7 | 0.00 | 0.01 | 0.00 | 95 | 1016.4 |
| 20260902055352 | 72 | 175 | 0.0 | 0.9 | 0.00 | 0.01 | 0.00 | 95 | 1016.1 |
| 20260902054832 | 72 | 175 | 0.0 | 1.7 | 0.00 | 0.01 | 0.00 | 95 | 1016.1 |
| 20260902054331 | 72 | 175 | 0.9 | 1.7 | 0.00 | 0.01 | 0.00 | 95 | 1016.1 |
| 20260902053851 | 72 | 192 | 0.0 | 1.7 | 0.00 | 0.01 | 0.00 | 95 | 1016.1 |
| 20260902053340 | 72 | 192 | 0.0 | 0.9 | 0.00 | 0.01 | 0.00 | 95 | 1016.1 |
| 20260902052840 | 72 | 192 | 0.0 | 1.7 | 0.00 | 0.01 | 0.00 | 95 | 1016.0 |
| 20260902052342 | 72 | 192 | 0.0 | 1.7 | 0.00 | 0.01 | 0.00 | 95 | 1016.0 |
| 20260902051843 | 72 | 192 | 0.0 | 0.0 | 0.00 | 0.01 | 0.00 | 95 | 1015.9 |
| 20260902051332 | 71 | 192 | 0.0 | 0.0 | 0.00 | 0.01 | 0.00 | 95 | 1016.0 |
| 20260902050834 | 71 | 192 | 0.0 | 0.0 | 0.00 | 0.01 | 0.00 | 95 | 1015.9 |